BEIDOU 9

Last updated on Sun Feb 19 2023 00:02:46 GMT+0000 (Coordinated Universal Time)

1 37763U 11038A 23049.32811006 -.00000093 00000+0 00000+0 0 9999 2 37763 54.4882 176.4929 0104226 227.5917 317.5720 1.00272393 42463

Satellite not in orbit

BEIDOU 9